Home > Weather > Trujillo > Past weeks

Flag for Peru Past Weather in Trujillo, La Libertad, Peru — Yesterday and Last 2 Weeks

Now
68 °F

Overcast.


Feels Like: 68 °F
Forecast: 62 / 78 °F
Wind: 14 mph from Southeast

Location: Trujillo Airport

Current Time: Jun 29, 2016 at 1:13:52 PM

Latest Report: Jun 29, 2016 at 12:00 PM


Visibility: N/A

Pressure: 29.92 "Hg

Humidity: 73%

Dew Point: 59 °F

Location of TrujilloLocation

Past Weather in Trujillo — Graph

°F

Trujillo Temperature Yesterday

Maximum temperature yesterday: 73 °F (at 2:00 PM)
Minimum temperature yesterday: 63 °F (at 1:00 AM)
Average temperature yesterday: 67 °F

High & Low Weather Summary for the Past Weeks

 TemperatureHumidityPressure
High77 °F (Jun 21, 2:00 PM)100% (Jun 21, 5:00 AM)30.07 "Hg (Jun 21, 5:00 AM)
Low59 °F (Jun 25, 7:00 AM)61% (Jun 19, 2:00 PM)29.83 "Hg (Jun 27, 4:00 PM)
Average67 °F81%29.95 "Hg
* Reported Jun 14 12:00 PM — Jun 29 12:00 PM, Trujillo, Weather by CustomWeather, © 2016

Note: Actual official high and low records may vary slightly from our data, if they occured in-between our weather recording intervals... More about our weather records

Advertising

Trujillo Weather History for the Previous 24 Hours

Scroll right to see more
 ConditionsComfort  
Time TempWeatherWind HumidityBarometerVisibility
12:00 PM
Wed, Jun 29
68 °FOvercast.14 mph73%29.92 "HgN/A
11:00 AM68 °FOvercast.10 mph73%29.95 "Hg5 mi
10:00 AM68 °FOvercast.9 mph73%29.95 "Hg4 mi
9:00 AM68 °FOvercast.9 mph73%29.95 "Hg4 mi
8:00 AM66 °FOvercast.7 mph83%29.95 "Hg4 mi
7:00 AM66 °FFog.7 mph78%29.92 "Hg3 mi
6:00 AM66 °FOvercast.6 mph78%29.92 "HgN/A
5:00 AM64 °FOvercast.6 mph88%29.92 "Hg6 mi
4:00 AM64 °FFog.6 mph88%29.89 "Hg3 mi
3:00 AM64 °FFog.5 mph88%29.89 "Hg3 mi
2:00 AM64 °FOvercast.9 mph88%29.92 "Hg4 mi
1:00 AM64 °FOvercast.10 mph88%29.92 "Hg4 mi
12:00 AM64 °FOvercast.10 mph88%29.95 "Hg4 mi
11:00 PM
Tue, Jun 28
64 °FOvercast.12 mph88%29.95 "Hg4 mi
10:00 PM64 °FOvercast.10 mph88%29.92 "Hg4 mi
9:00 PM64 °FPassing clouds.8 mph88%29.92 "Hg4 mi
8:00 PM66 °FPassing clouds.7 mph83%29.89 "Hg4 mi
7:00 PM68 °FPassing clouds.8 mph88%29.89 "HgN/A
6:00 PM70 °FScattered clouds.9 mph83%29.86 "HgN/A
5:00 PM72 °FPassing clouds.9 mph73%29.86 "HgN/A
4:00 PM73 °FPassing clouds.8 mph69%29.86 "HgN/A
3:00 PM73 °FPassing clouds.10 mph69%29.86 "HgN/A
2:00 PM73 °FPassing clouds.12 mph69%29.89 "HgN/A
1:00 PM72 °FSunny.13 mph73%29.92 "Hg10 mi
Weather by CustomWeather, © 2016

See weather overviewHow to use our weather pages